Moses Lake, WA

2:09 PM PST on December 15, 2017 (GMT -0800)
Grant County International

Weather History for KMWH - November, 2015

Change the Weather History Date:

Monday, November 16, 2015

  Actual Average Record
Temperature  
Mean Temperature 36 °F 37 °F  
Max Temperature 46 °F 46 °F 58 °F (2010)
Min Temperature 25 °F 29 °F 8 °F (2014)
Degree Days  
Heating Degree Days 29 28  
Month to date heating degree days 351 396  
Since 1 July heating degree days 748 1033  
Cooling Degree Days 0 0  
Month to date cooling degree days 0 0  
Year to date cooling degree days 1066 615  
Moisture  
Dew Point 25 °F    
Average Humidity 54    
Maximum Humidity 73    
Minimum Humidity 34    
Precipitation  
Precipitation 0.01 in 0.03 in 0.46 in (2001)
Month to date precipitation 0.16 0.61  
Year to date precipitation 3.96 7.08  
Sea Level Pressure  
Sea Level Pressure 30.08 in    
Wind  
Wind Speed 10 mph (South)    
Max Wind Speed 23 mph    
Max Gust Speed 31 mph    
Visibility 10 miles    
Events Rain    
T = Trace of Precipitation, MM = Missing Value Source: NWS Daily Summary

Daily Weather History Graph

Daily Weather History Graph

Search for Another Location

Airport or City:

Trip Planner

Search our weather history database for the weather conditions in past years. The results will help you decide how hot, cold, wet, or windy it might be!

Date:

Astronomy

Nov. 16, 2015 Rise Set
Actual Time 7:02 AM PST 4:21 PM PST
Civil Twilight 6:29 AM PST 4:54 PM PST
Nautical Twilight 5:51 AM PST 5:31 PM PST
Astronomical Twilight 5:15 AM PST 6:07 PM PST
Moon 11:09 AM PST (11/16) 8:59 PM PST (11/16)
Length of Visible Light 10h 25m
Length of Day
9h 18m
Waxing Crescent, 25% of the Moon is Illuminated
Nov 16
Waxing Crescent
Nov 18
First Quarter
Nov 25
Full
Dec 2
Last Quarter
Dec 11
New

Hourly Weather History & Observations

Time (PST) Temp. Windchill Dew Point Humidity Pressure Visibility Wind Dir Wind Speed Gust Speed Precip Events Conditions
12:52 AM 33.1 °F 26.9 °F 21.0 °F 61% 29.95 in 10.0 mi West 6.9 mph - N/A   Clear
1:52 AM 36.0 °F 28.5 °F 19.0 °F 50% 29.98 in 10.0 mi WNW 10.4 mph - N/A   Clear
2:52 AM 30.9 °F 27.5 °F 19.0 °F 61% 30.01 in 10.0 mi NE 3.5 mph - N/A   Clear
3:52 AM 28.0 °F 24.2 °F 19.0 °F 69% 30.05 in 10.0 mi East 3.5 mph - N/A   Clear
4:52 AM 32.0 °F 27.5 °F 19.0 °F 59% 30.07 in 10.0 mi NE 4.6 mph - N/A   Clear
5:52 AM 33.1 °F 28.7 °F 19.0 °F 56% 30.09 in 10.0 mi SE 4.6 mph - N/A   Clear
6:52 AM 26.1 °F - 18.0 °F 71% 30.12 in 10.0 mi Calm Calm - N/A   Clear
7:52 AM 30.0 °F 22.4 °F 21.0 °F 69% 30.15 in 10.0 mi SSE 8.1 mph - N/A   Clear
8:52 AM 34.0 °F - 25.0 °F 70% 30.18 in 10.0 mi Calm Calm - N/A   Clear
9:52 AM 41.0 °F 39.0 °F 25.0 °F 53% 30.19 in 10.0 mi South 3.5 mph - N/A   Clear
10:52 AM 44.1 °F 40.1 °F 25.0 °F 47% 30.19 in 10.0 mi SSW 6.9 mph - N/A   Clear
11:52 AM 46.0 °F 42.5 °F 21.9 °F 39% 30.17 in 10.0 mi South 6.9 mph - N/A   Clear
12:52 PM 46.0 °F 40.6 °F 23.0 °F 40% 30.16 in 10.0 mi South 11.5 mph - N/A   Clear
1:52 PM 46.0 °F 40.2 °F 23.0 °F 40% 30.15 in 10.0 mi South 12.7 mph - N/A   Clear
2:52 PM 46.0 °F 40.6 °F 19.9 °F 35% 30.15 in 10.0 mi South 11.5 mph - N/A   Scattered Clouds
3:52 PM 45.0 °F 39.7 °F 19.9 °F 37% 30.14 in 10.0 mi South 10.4 mph - N/A   Mostly Cloudy
4:52 PM 44.1 °F 36.8 °F 24.1 °F 45% 30.11 in 10.0 mi SSE 16.1 mph - N/A   Overcast
5:52 PM 42.1 °F 34.9 °F 28.0 °F 58% 30.09 in 10.0 mi SSE 13.8 mph - N/A   Overcast
6:52 PM 42.1 °F 33.6 °F 33.1 °F 70% 30.07 in 10.0 mi South 18.4 mph - 0.01 in Rain Light Rain
7:52 PM 42.1 °F 33.6 °F 34.0 °F 73% 30.04 in 10.0 mi South 18.4 mph 27.6 mph 0.00 in   Overcast
8:52 PM 41.0 °F 32.5 °F 34.0 °F 76% 30.00 in 10.0 mi SSE 17.3 mph - N/A   Overcast
9:52 PM 42.1 °F 33.9 °F 34.0 °F 73% 29.95 in 10.0 mi South 17.3 mph - N/A   Overcast
10:52 PM 42.1 °F 33.9 °F 34.0 °F 73% 29.93 in 10.0 mi South 17.3 mph - N/A   Overcast
11:52 PM 41.0 °F 32.5 °F 35.1 °F 79% 29.90 in 10.0 mi South 17.3 mph - N/A   Mostly Cloudy